sat.trackr.live / text

‹ back to catalog

YAOGAN-26

NORAD 40362 · 2014-088A

PAYLOAD ACTIVE UNKNOWN

§ Identity

Operator
Country
PRC
Launch date
2014-12-27
Launch site
TAISC
Launch vehicle
Mass (kg)
RCS (m²)
4.77

Purposes: earth_obs

External: N2YO · Heavens-Above · Gunter

§ Orbital elements

Epoch: 2026-09-20T03:37:44.958720Z

Period
92.85 min
Inclination
97.0707°
Eccentricity
0.0005591
Mean motion
15.50947629 rev/d
Perigee alt
410.2 km
Apogee alt
417.8 km
Semi-major
6,792.1 km
B*
3.2200e-4
RAAN
261.4066°
Arg perigee
71.6483°
Mean anomaly
288.5377°
Rev number
65,240

§ Raw data

YAOGAN-261 40362U 14088A   26263.15121480  .00018596  00000+0  32200-3 0  99952 40362  97.0707 261.4066 0005591  71.6483 288.5377 15.50947629652406

JSON: /api/v1/satellites/40362 · /tle

For live sub-satellite position, see the globe view (requires WebGL).

§ Visibility from observer

Set your observer location to see the next 7 days of passes ≥ 10°. The values pass through the URL so the page stays shareable.

No JS? Fill the form by hand. The geolocation button needs JavaScript.